Bluefield, WV

8:43 PM EST on January 23, 2017 (GMT -0500)
Mercer County

Weather History for KBLF - March, 2014

Change the Weather History Date:

Wednesday, March 19, 2014

  Actual Average Record
Temperature  
Mean Temperature 54 °F 46 °F  
Max Temperature 68 °F 55 °F 80 °F (2012)
Min Temperature 40 °F 37 °F 17 °F (1967)
Degree Days  
Heating Degree Days 11 19  
Month to date heating degree days 430 413  
Since 1 July heating degree days 4065 3906  
Cooling Degree Days 0 0  
Month to date cooling degree days 0 0  
Year to date cooling degree days 0 0  
Growing Degree Days 2 (Base 50)    
Moisture  
Dew Point 37 °F    
Average Humidity 56    
Maximum Humidity 82    
Minimum Humidity 29    
Precipitation  
Precipitation 0.03 in 0.11 in 1.26 in (1975)
Month to date precipitation 1.38 2.13  
Year to date precipitation 5.51 7.79  
Snow  
Snow 0.00 in - - ()
Month to date snowfall 6.0  
Since 1 July snowfall 43.6  
Snow Depth 0.00 in    
Sea Level Pressure  
Sea Level Pressure 29.95 in    
Wind  
Wind Speed 12 mph (SSW)    
Max Wind Speed 29 mph    
Max Gust Speed 36 mph    
Visibility 10 miles    
Events      
T = Trace of Precipitation, MM = Missing Value Source: NWS Daily Summary

Daily Weather History Graph

Daily Weather History Graph

Search for Another Location

Airport or City:

Trip Planner

Search our weather history database for the weather conditions in past years. The results will help you decide how hot, cold, wet, or windy it might be!

Date:

Astronomy

Mar. 19, 2014 Rise Set
Actual Time 7:29 AM EDT 7:35 PM EDT
Civil Twilight 7:03 AM EDT 8:01 PM EDT
Nautical Twilight 6:33 AM EDT 8:32 PM EDT
Astronomical Twilight 6:02 AM EDT 9:03 PM EDT
Moon 10:48 PM EDT (3/19) 8:58 AM EDT (3/19)
Length of Visible Light 12h 57m
Length of Day
12h 05m
Waning Gibbous, 91% of the Moon is Illuminated
Mar 19
Waning Gibbous
Mar 23
Last Quarter
Mar 30
New
Apr 7
First Quarter
Apr 15
Full

Hourly Weather History & Observations

Time (EDT) Temp. Windchill Dew Point Humidity Pressure Visibility Wind Dir Wind Speed Gust Speed Precip Events Conditions
12:52 AM 39.0 °F 34.8 °F 34.0 °F 82% 30.07 in 10.0 mi Variable 5.8 mph - N/A   Overcast
1:52 AM 41.0 °F 35.8 °F 35.1 °F 79% 30.07 in 10.0 mi SSE 8.1 mph 20.7 mph N/A   Overcast
2:52 AM 41.0 °F 35.2 °F 36.0 °F 82% 30.06 in 10.0 mi SSE 9.2 mph - N/A   Overcast
3:52 AM 42.1 °F 37.7 °F 36.0 °F 79% 30.04 in 10.0 mi Variable 6.9 mph - N/A   Overcast
4:52 AM 43.0 °F 36.8 °F 37.0 °F 80% 30.01 in 10.0 mi SSE 11.5 mph 25.3 mph N/A   Mostly Cloudy
5:08 AM 43.0 °F 36.4 °F 37.0 °F 80% 30.01 in 10.0 mi SSE 12.7 mph 33.4 mph N/A   Scattered Clouds
5:52 AM 43.0 °F 36.4 °F 37.0 °F 80% 30.01 in 10.0 mi South 12.7 mph 23.0 mph N/A   Partly Cloudy
6:52 AM 44.1 °F 38.6 °F 37.9 °F 79% 30.02 in 10.0 mi SSE 10.4 mph 18.4 mph N/A   Clear
7:52 AM 45.0 °F 41.8 °F 37.9 °F 76% 30.02 in 10.0 mi South 5.8 mph - N/A   Partly Cloudy
8:52 AM 46.9 °F - 37.9 °F 71% 30.01 in 10.0 mi SE 9.2 mph 18.4 mph N/A   Partly Cloudy
9:52 AM 48.0 °F - 39.0 °F 71% 30.01 in 10.0 mi SSE 8.1 mph - N/A   Partly Cloudy
10:52 AM 52.0 °F - 39.9 °F 63% 29.99 in 10.0 mi ESE 8.1 mph - N/A   Clear
11:52 AM 54.0 °F - 39.9 °F 59% 29.96 in 10.0 mi SSE 17.3 mph 29.9 mph N/A   Clear
12:52 PM 57.0 °F - 41.0 °F 55% 29.93 in 10.0 mi SSW 11.5 mph 21.9 mph N/A   Clear
1:52 PM 62.1 °F - 41.0 °F 46% 29.89 in 10.0 mi Variable 6.9 mph 17.3 mph N/A   Clear
2:52 PM 64.9 °F - 39.0 °F 39% 29.86 in 10.0 mi Variable 6.9 mph 18.4 mph N/A   Clear
3:52 PM 66.0 °F - 33.1 °F 29% 29.82 in 10.0 mi SSW 13.8 mph 26.5 mph N/A   Overcast
4:52 PM 66.9 °F - 39.0 °F 36% 29.81 in 10.0 mi WSW 18.4 mph 28.8 mph N/A   Clear
5:52 PM 63.0 °F - 37.0 °F 38% 29.83 in 10.0 mi West 21.9 mph 36.8 mph N/A   Clear
6:52 PM 59.0 °F - 37.0 °F 44% 29.84 in 10.0 mi WSW 18.4 mph 29.9 mph N/A   Mostly Cloudy
7:52 PM 55.9 °F - 34.0 °F 44% 29.88 in 10.0 mi West 16.1 mph 34.5 mph N/A   Clear
8:52 PM 54.0 °F - 36.0 °F 51% 29.89 in 10.0 mi West 13.8 mph - N/A   Mostly Cloudy
9:52 PM 53.1 °F - 34.0 °F 48% 29.89 in 10.0 mi West 12.7 mph 23.0 mph N/A   Scattered Clouds
10:52 PM 51.1 °F - 37.0 °F 59% 29.88 in 10.0 mi West 13.8 mph 26.5 mph N/A   Scattered Clouds
11:52 PM 50.0 °F - 37.9 °F 63% 29.89 in 10.0 mi West 13.8 mph 20.7 mph N/A   Mostly Cloudy